Location: Passau
(48.5830°N, 13.4830°E)
Time: 05:48:52
(UTC+02:00)

Vanguard 1 - Pass Details

Date: 30 July 2021
Orbit: 652 x 3831 km, 34.3° (Epoch: 16 September)

Event Time Altitude Azimuth Distance (km) Brightness Sun altitude
Rises 16:48:19 0° 261° (W) 4,258 14.3 37.3°
Reaches altitude 10° 16:51:19 10° 248° (WSW) 3,647 14.3 36.8°
Maximum altitude 16:59:00 26° 196° (SSW) 3,419 13.5 35.6°
Drops below altitude 10° 17:10:46 10° 149° (SSE) 5,735 13.9 33.7°
Sets 17:17:16 0° 139° (SE) 7,257 14.2 32.6°
